Location: Tryon
(41.5533°N, 100.9574°W)
Time: 15:10:24
(UTC-05:00)

Tiangong 2 - Pass Details

Date: 29 March 2019
Orbit: 378 x 389 km, 42.8° (Epoch: 21 April)

Event Time Altitude Azimuth Distance (km) Brightness Sun altitude
Rises 21:50:08 0° 229° (SW) 2,231 5.3 -19.6°
Reaches altitude 10° 21:52:19 10° 218° (SW) 1,381 4.0 -20.0°
Enters shadow 21:53:09 16° 210° (SSW) 1,086 3.4 -20.2°
